Burlington, CO

4:06 PM MST on December 06, 2016 (GMT -0700)
Kit Carson County

Weather History for KITR - March, 2013

Change the Weather History Date:

Sunday, March 10, 2013

  Actual Average Record
Temperature  
Mean Temperature 22 °F 38 °F  
Max Temperature 31 °F 52 °F 83 °F (1989)
Min Temperature 13 °F 24 °F -11 °F (1932)
Degree Days  
Heating Degree Days 44    
Moisture  
Dew Point 16 °F    
Average Humidity 74    
Maximum Humidity 88    
Minimum Humidity 59    
Precipitation  
Precipitation T in 0.03 in 0.65 in (1974)
Month to date precipitation 0.17 0.25  
Year to date precipitation 0.66 1.05  
Sea Level Pressure  
Sea Level Pressure 30.10 in    
Wind  
Wind Speed 20 mph (NNW)    
Max Wind Speed 29 mph    
Max Gust Speed 38 mph    
Visibility 9 miles    
Events      
T = Trace of Precipitation, MM = Missing Value Source: NWS Daily Summary

Daily Weather History Graph

Daily Weather History Graph

Search for Another Location

Airport or City:

Trip Planner

Search our weather history database for the weather conditions in past years. The results will help you decide how hot, cold, wet, or windy it might be!

Date:

Astronomy

Mar. 10, 2013 Rise Set
Actual Time 7:07 AM MDT 6:51 PM MDT
Civil Twilight 6:41 AM MDT 7:18 PM MDT
Nautical Twilight 6:10 AM MDT 7:49 PM MDT
Astronomical Twilight 5:38 AM MDT 8:20 PM MDT
Moon 6:08 AM MDT (3/10) 6:01 PM MDT (3/10)
Length of Visible Light 12h 36m
Length of Day
11h 43m
Waning Crescent, 1% of the Moon is Illuminated
Mar 10
Waning Crescent
Mar 11
New
Mar 19
First Quarter
Mar 27
Full
Apr 2
Last Quarter

Hourly Weather History & Observations

Time (MDT) Temp. Windchill Dew Point Humidity Pressure Visibility Wind Dir Wind Speed Gust Speed Precip Events Conditions
12:08 AM 26.6 °F 10.6 °F 19.4 °F 74% 29.93 in 4.0 mi North 28.8 mph 38.0 mph 0.00 in   Mostly Cloudy
12:53 AM 25.0 °F 9.5 °F 19.0 °F 78% 30.03 in 4.0 mi North 24.2 mph 35.7 mph 0.00 in   Haze
1:53 AM 25.0 °F 10.9 °F 18.0 °F 75% 30.06 in 10.0 mi NNW 19.6 mph 28.8 mph N/A   Overcast
3:53 AM 23.0 °F 8.7 °F 16.0 °F 74% 30.07 in 10.0 mi NNW 18.4 mph - N/A   Clear
4:53 AM 23.0 °F 8.7 °F 16.0 °F 74% 30.09 in 10.0 mi NNW 18.4 mph - N/A   Overcast
6:53 AM 21.9 °F 7.3 °F 17.1 °F 82% 30.10 in 10.0 mi NNW 18.4 mph 26.5 mph N/A   Partly Cloudy
7:53 AM 21.9 °F 8.7 °F 17.1 °F 82% 30.10 in 10.0 mi NNW 15.0 mph - N/A   Partly Cloudy
8:20 AM 23.0 °F 8.7 °F 17.6 °F 80% 30.02 in 10.0 mi North 18.4 mph 27.6 mph N/A   Mostly Cloudy
8:53 AM 23.0 °F 8.0 °F 17.1 °F 78% 30.10 in 10.0 mi North 20.7 mph 28.8 mph N/A   Mostly Cloudy
9:53 AM 24.1 °F 7.7 °F 18.0 °F 77% 30.12 in 6.0 mi North 26.5 mph 34.5 mph N/A   Haze
10:53 AM 24.1 °F 7.4 °F 18.0 °F 77% 30.14 in 7.0 mi North 27.6 mph 34.5 mph N/A   Overcast
11:36 AM 26.6 °F 12.0 °F 17.6 °F 69% 30.08 in 10.0 mi North 23.0 mph 33.4 mph N/A   Scattered Clouds
11:53 AM 27.0 °F 12.5 °F 18.0 °F 69% 30.16 in 10.0 mi North 23.0 mph - N/A   Partly Cloudy
12:43 PM 26.6 °F 12.7 °F 17.6 °F 69% 30.09 in 10.0 mi North 20.7 mph 29.9 mph N/A   Mostly Cloudy
12:53 PM 27.0 °F 12.2 °F 17.1 °F 66% 30.17 in 10.0 mi North 24.2 mph 28.8 mph N/A   Mostly Cloudy
1:27 PM 28.4 °F 14.7 °F 17.6 °F 64% 30.07 in 10.0 mi North 21.9 mph 28.8 mph N/A   Scattered Clouds
1:53 PM 28.9 °F 16.1 °F 17.1 °F 61% 30.14 in 10.0 mi North 19.6 mph 29.9 mph N/A   Scattered Clouds
2:53 PM 28.9 °F 16.9 °F 17.1 °F 61% 30.13 in 10.0 mi North 17.3 mph 28.8 mph N/A   Partly Cloudy
3:53 PM 30.0 °F 18.3 °F 18.0 °F 61% 30.12 in 10.0 mi North 17.3 mph - N/A   Clear
4:53 PM 30.9 °F 18.7 °F 18.0 °F 59% 30.10 in 10.0 mi North 19.6 mph - N/A   Clear
5:53 PM 30.0 °F 19.5 °F 18.0 °F 61% 30.10 in 10.0 mi North 13.8 mph - N/A   Clear
6:53 PM 26.1 °F 16.8 °F 18.0 °F 71% 30.12 in 10.0 mi NNE 9.2 mph - N/A   Clear
7:53 PM 23.0 °F 13.9 °F 17.1 °F 78% 30.14 in 10.0 mi NNE 8.1 mph - N/A   Clear
8:53 PM 14.0 °F 2.0 °F 10.9 °F 88% 30.17 in 10.0 mi West 9.2 mph - N/A   Clear
9:53 PM 14.0 °F 0.5 °F 10.0 °F 84% 30.16 in 10.0 mi West 11.5 mph - N/A   Clear
10:53 PM 12.9 °F 3.8 °F 10.0 °F 88% 30.14 in 10.0 mi WSW 5.8 mph - N/A   Clear
11:53 PM 14.0 °F 2.9 °F 9.0 °F 80% 30.13 in 10.0 mi West 8.1 mph - N/A   Clear
12:53 AM 14.0 °F 3.9 °F 10.0 °F 84% 30.12 in 10.0 mi WSW 6.9 mph - N/A   Clear